This is the latest recevied weather packets stored in our database for station/object N7CW. If no packets are shown the sender has not sent any weather packets the latest 10 day(s).
| Time | Temp. | Humidity | Pressure | Rain* | Wind** | Luminosity | Snow |
|---|---|---|---|---|---|---|---|
| 1777398403 | 15° C | 30% | 1019.7 hPa | 0 mm | - | 751 W/m² | - |
| 1777398099 | 15° C | 30% | 1019.7 hPa | 0 mm | - | 742 W/m² | - |
| 1777397797 | 14.44° C | 30% | 1019.7 hPa | 0 mm | - | 733 W/m² | - |
| 1777397492 | 15° C | 29% | 1019.8 hPa | 0 mm | - | 724 W/m² | - |
| 1777397188 | 13.89° C | 30% | 1019.8 hPa | 0 mm | - | 717 W/m² | - |
| 1777396886 | 14.44° C | 30% | 1019.4 hPa | 0 mm | - | 707 W/m² | - |
| 1777396581 | 15° C | 29% | 1019.5 hPa | 0 mm | - | 697 W/m² | - |
| 1777396279 | 14.44° C | 30% | 1019.7 hPa | 0 mm | - | 686 W/m² | - |
| 1777395975 | 14.44° C | 31% | 1019.5 hPa | 0 mm | - | 675 W/m² | - |
| 1777395675 | 14.44° C | 29% | 1019.5 hPa | 0 mm | - | 664 W/m² | - |
| 1777395371 | 12.78° C | 32% | 1019.9 hPa | 0 mm | - | 652 W/m² | - |
| 1777395070 | 13.33° C | 32% | 1019.5 hPa | 0 mm | - | 640 W/m² | - |
| 1777394766 | 13.33° C | 31% | 1019.7 hPa | 0 mm | - | 628 W/m² | - |
| 1777394462 | 12.78° C | 31% | 1019.4 hPa | 0 mm | - | 615 W/m² | - |
| 1777394158 | 13.33° C | 32% | 1019.5 hPa | 0 mm | - | 601 W/m² | - |
| 1777393854 | 11.67° C | 33% | 1019.7 hPa | 0 mm | - | 586 W/m² | - |
| 1777393553 | 11.67° C | 34% | 1019.8 hPa | 0 mm | - | 572 W/m² | - |
| 1777393249 | 11.67° C | 35% | 1019.5 hPa | 0 mm | - | 558 W/m² | - |
| 1777392946 | 12.22° C | 35% | 1019.4 hPa | 0 mm | - | 544 W/m² | - |
| 1777392642 | 11.67° C | 34% | 1019.5 hPa | 0 mm | - | 530 W/m² | - |
| 1777392338 | 11.67° C | 36% | 1019.5 hPa | 0 mm | - | 516 W/m² | - |
| 1777392038 | 12.22° C | 34% | 1019.4 hPa | 0 mm | - | 502 W/m² | - |
| 1777391733 | 12.22° C | 35% | 1019.5 hPa | 0 mm | - | 488 W/m² | - |
| 1777391430 | 12.22° C | 34% | 1019.5 hPa | 0 mm | - | 463 W/m² | - |
| 1777391126 | 11.67° C | 36% | 1019.7 hPa | 0 mm | - | 461 W/m² | - |
* Rain latest hour (hover to see other rain measurements)
** Current wind speed in m/s (hover to see current wind gust speed)